SCP
0 0 0 0 0 0 0 0 0 0 0 0 0 0 0 0 0 0 0 0 0 0 0 0 0 0 0 0 0 0 0 0 0 0 0 0 0 0 0 0 0 0 0
0 0 0 0 0 0 0 0 0 0 0 0 0 0 0 0 0 0 0 0 0 0 0 0 0 0 0 0 0 0 0 0 0 0 0 0 0 0 0 0 0 0 0
0 0 0 0 0 0 0 0 0 0 0 0 0 0 0 0 0 0 0 0 0 0 0 0 0 0 0 0 0 0 0 0 0 0 0 0 0 0 0 0 0 0 0
0 0 0 0 0 0 0 0 0 0 0 0 0 0 0 0 0 0 0 0 0 0 0 0 0 0 0 0 0 0 0 0 0 0 0 0 0 0 0 0 0 0 0
0 0 0 0 0 0 0 0 0 0 0 0 0 0 0 0 0 0 0 0 0 0 0 0 0 0 0 0 0 0 0 0 0 0 0 0 0 0 0 0 0 0 0
0 0 0 0 0 0 0 0 0 0 0 0 0 0 0 0 0 0 0 0 0 0 0 0 0 0 0 0 0 0 0 0 0 0 0 0 0 0 0 0 0 0 0
0 0 0 0 0 0 0 0 0 0 0 0 0 0 0 0 0 0 0 0 0 0 0 0 0 0 0 0 0 0 0 0 0 0 0 0 0 0 0 0 0 0 0
0 0 0 0 0 0 0 0 0 0 0 0 0 0 0 0 0 0 0 0 0 0 0 0 0 0 0 0 0 0 0 0 0 0 0 0 0 0 0 0 0 0 0
0 0 0 0 0 0 0 0 0 0 0 0 0 0 0 0 0 0 0 0 0 0 0 0 0 0 0 0 0 0 0 0 0 0 0 0 0 0 0 0 0 0 0
0 0 0 0 0 0 0 0 0 0 0 0 0 0 0 0 0 0 0 0 0 0 0 0 0 0 0 0 0 0 0 0 0 0 0 0 0 0 0 0 0 0 0
0 0 0 0 0 0 0 0 0 0 0 0 0 0 0 0 0 0 0 0 0 0 0 0 0 0 0 0 0 0 0 0 0 0 0 0 0 0 0 0 0 0 0
0 0 0 0 0 0 0 0 0 0 0 0 0 0 0 0 0 0 0 0 0 0 0 0 0 0 0 0 0 0 0 0 0 0 0 0 0 0 0 0 0 0 0
0 0 0 0 0 0 0 0 0 0 0 0 0 0 0 0 0 0 0 0 0 0 0 0 0 0 0 0 0 0 0 0 0 0 0 0 0 0 0 0 0 0 0
0 0 0 0 0 0 0 0 0 0 0 0 0 0 0 0 0 0 0 0 0 0 0 0 0 0 0 0 0 0 0 0 0 0 0 0 0 0 0 0 0 0 0
0 0 0 0 0 0 0 0 0 0 0 0 0 0 0 0 0 0 0 0 0 0 0 0 0 0 0 0 0 0 0 0 0 0 0 0 0 0 0 0 0 0 0
0 0 0 0 0 0 0 0 0 0 0 0 0 0 0 0 0 0 0 0 0 0 0 0 0 0 0 0 0 0 0 0 0 0 0 0 0 0 0 0 0 0 0
0 0 0 0 0 0 0 0 0 0 0 0 0 0 0 0 0 0 0 0 0 0 0 0 0 0 0 0 0 0 0 0 0 0 0 0 0 0 0 0 0 0 0
0 0 0 0 0 0 0 0 0 0 0 0 0 0 0 0 0 0 0 0 0 0 0 0 0 0 0 0 0 0 0 0 0 0 0 0 0 0 0 0 0 0 0
0 0 0 0 0 0 0 0 0 0 0 0 0 0 0 0 0 0 0 0 0 0 0 0 0 0 0 0 0 0 0 0 0 0 0 0 0 0 0 0 0 0 0
0 0 0 0 0 0 0 0 0 0 0 0 0 0 0 0 0 0 0 0 0 0 0 0 0 0 0 0 0 0 0 0 0 0 0 0 0 0 0 0 0 0 0
0 0 0 0 0 0 0 0 0 0 0 0 0 0 0 0 0 0 0 0 0 0 0 0 0 0 0 0 0 0 0 0 0 0 0 0 0 0 0 0 0 0 0
0 0 0 0 0 0 0 0 0 0 0 0 0 0 0 0 0 0 0 0 0 0 0 0 0 0 0 0 0 0 0 0 0 0 0 0 0 0 0 0 0 0 0
0 0 0 0 0 0 0 0 0 0 0 0 0 0 0 0 0 0 0 0 0 0 0 0 0 0 0 0 0 0 0 -0 -0 -0 -0 -0 0 0 0 0 0 0 0
0 0 0 0 0 0 0 0 0 0 0 0 0 0 0 0 0 0 0 0 0 0 0 0 0 0 0 0 0 0 0 -0 -0 -0 -0 -0 0 0 0 0 0 0 0
0 0 0 0 0 0 0 0 0 0 0 0 0 0 0 0 0 0 0 0 0 0 0 0 0 0 0 0 0 0 0 -0 -0 0 0 0 0 0 0 0 0 0 0
0 0 0 0 0 0 0 0 0 0 0 0 0 0 0 0 0 0 0 0 0 0 0 0 0 0 0 0 0 0 0 -0 0 0 0 0 0 0 0 0 0 0 0
Wind_Speed
7 6 6 6 6 6 6 6 6 4 3 2 1 1 2 2 3 3 4 5 5 4 3 3 3 3 2 2 2 1 1 1 0 0 1 1 1 1 1 1 1 1 2
7 6 6 6 6 5 5 6 6 5 5 3 1 1 1 1 2 3 4 5 5 4 3 3 2 2 2 3 2 2 1 1 1 1 0 1 2 1 1 1 1 1 1
8 6 6 6 6 6 6 5 6 6 6 5 3 3 3 2 3 4 4 5 5 5 4 4 3 3 2 2 2 2 1 1 1 1 1 1 2 1 1 1 1 2 2
7 6 6 5 5 4 4 5 6 6 6 5 5 4 3 3 3 2 3 4 5 5 5 5 4 3 2 2 2 2 1 1 1 1 1 1 1 1 1 1 1 2 2
8 7 6 5 4 4 5 5 6 6 6 5 5 5 4 3 2 3 4 5 5 5 5 5 4 4 3 3 3 3 2 1 2 1 1 1 1 2 2 1 0 1 2
8 7 5 5 4 5 5 5 6 6 5 5 5 5 5 4 4 5 5 5 4 4 6 6 5 4 4 4 3 3 2 2 2 1 1 1 2 2 2 2 1 1 1
9 7 6 5 4 4 4 5 5 6 5 6 6 5 5 4 4 4 4 4 4 4 6 6 5 4 4 4 3 3 3 2 2 2 1 1 2 2 1 2 2 1 1
8 7 6 5 4 4 4 4 5 5 5 5 5 5 4 3 3 3 3 3 3 3 5 5 5 5 5 5 4 3 3 3 2 2 2 1 1 1 1 2 2 2 1
8 7 6 5 4 4 4 4 4 4 4 4 4 5 5 4 4 4 4 3 3 3 5 5 5 5 5 5 4 3 4 3 3 3 2 1 1 1 0 1 2 3 2
7 6 5 4 3 3 4 4 4 4 4 4 4 4 5 4 4 4 5 5 5 5 5 5 6 6 6 5 4 4 4 4 4 3 3 2 2 1 1 0 1 1 2
8 7 5 4 3 4 4 4 4 4 4 4 4 5 5 5 5 5 5 4 4 5 5 6 6 6 6 6 5 5 5 6 5 5 4 4 3 2 2 2 2 2 3
7 7 6 5 4 4 4 4 3 3 3 4 4 4 4 5 5 5 5 5 5 5 5 5 6 6 7 6 6 6 6 6 6 6 5 5 3 4 3 3 4 3 3
8 6 5 4 4 4 3 4 3 3 3 4 4 4 4 5 5 5 5 5 5 5 6 6 6 6 6 6 6 5 5 6 6 6 6 5 4 4 3 4 4 4 4
8 7 5 4 4 3 3 3 3 3 3 4 4 4 4 4 4 4 5 5 5 5 6 5 5 5 6 6 6 5 5 6 6 6 6 6 5 4 4 4 4 5 6
8 7 6 5 4 3 3 3 3 3 3 4 3 3 3 3 4 4 5 5 5 5 5 5 6 6 5 6 6 6 6 6 7 7 6 6 8 8 5 4 4 5 5
8 7 6 6 5 4 3 3 3 3 3 3 3 3 3 4 4 4 4 5 5 5 6 6 6 6 6 8 9 7 6 6 7 7 7 7 8 10 11 11 9 6 6
7 7 6 6 5 4 4 3 2 2 3 3 2 3 3 4 4 4 5 5 5 5 6 6 6 6 7 9 9 10 6 7 7 7 6 6 7 7 7 10 12 11 10
7 6 6 5 4 4 4 3 3 3 3 2 2 2 3 3 3 4 4 4 3 4 4 5 5 5 7 9 9 9 7 7 7 7 7 6 7 7 6 7 8 8 7
6 6 6 6 5 5 4 4 4 3 3 2 2 2 2 3 3 3 3 3 3 4 4 4 5 6 6 8 8 7 5 6 7 7 8 7 7 9 8 8 8 8 7
6 6 6 6 5 4 5 5 4 3 2 1 1 2 2 2 3 2 2 2 3 3 4 5 5 5 5 8 8 6 4 6 5 6 7 9 8 9 8 6 6 7 4
7 7 7 6 5 5 5 5 3 2 1 1 2 2 2 2 2 2 2 2 3 4 4 5 5 5 6 7 9 7 4 4 4 5 5 5 9 8 8 6 5 4 2
7 7 6 5 4 5 6 5 3 1 2 3 3 3 3 2 2 3 3 3 3 4 4 4 4 4 5 6 7 9 7 4 3 3 3 4 7 8 7 5 5 5 4
7 6 6 6 4 4 5 5 2 2 3 4 3 3 3 3 3 3 2 2 2 2 2 3 3 3 4 5 8 8 8 7 3 2 4 5 6 6 5 6 6 4 3
6 6 6 6 4 3 3 3 3 3 4 4 3 2 3 3 3 2 2 2 1 1 2 2 2 2 3 3 4 4 4 5 4 3 4 6 6 5 4 4 4 3 2
5 5 6 6 5 4 3 2 3 4 4 3 2 2 2 2 2 2 1 0 1 1 1 1 1 1 2 3 3 2 2 2 2 2 3 3 4 4 4 3 3 2 2
5 5 5 5 5 4 3 2 3 4 4 3 2 1 1 1 1 1 2 2 1 1 2 3 3 2 3 4 3 3 3 4 3 3 2 2 2 2 2 3 3 2 2
Wind_Direction
102 92 82 71 61 42 40 41 38 37 41 42 42 46 42 21 26 28 24 17 15 15 28 16 14 8 5 348 343 336 331 315 321 345 324 317 306 322 312 313 314 300 291
117 106 90 74 62 53 42 43 38 36 35 36 44 71 74 45 43 24 25 20 16 12 23 23 15 9 10 6 2 353 327 290 242 181 208 302 323 345 341 354 357 342 345
136 119 94 76 63 49 40 42 35 31 29 28 38 44 45 38 28 17 15 7 9 13 15 16 13 10 14 354 337 324 282 267 268 238 200 203 241 304 359 17 34 29 23
130 117 102 88 75 63 50 46 44 38 29 31 44 54 54 38 13 2 6 6 10 12 11 11 10 6 357 347 327 326 291 261 264 271 257 240 200 202 278 17 42 43 31
129 122 111 103 87 69 59 48 47 45 36 39 45 59 59 47 25 20 22 17 9 12 11 11 11 6 0 349 343 342 326 284 258 249 254 246 245 224 213 240 31 46 21
126 118 111 100 82 66 58 50 52 45 38 45 48 57 59 48 40 28 18 11 4 5 9 10 9 6 1 354 345 343 345 331 297 276 255 237 232 217 208 209 169 100 18
133 129 124 108 91 78 65 57 59 50 37 44 45 45 48 46 41 27 18 12 6 1 358 3 1 357 353 351 354 359 352 346 324 303 287 269 258 244 214 187 161 140 63
135 134 126 115 104 88 77 70 63 54 41 43 40 37 39 39 30 27 23 15 4 355 352 359 2 359 357 359 1 4 353 350 339 327 311 295 284 257 223 178 157 147 111
141 132 122 112 104 95 88 84 77 61 46 41 41 39 37 37 29 25 24 18 5 3 8 5 6 3 3 3 5 8 357 355 353 341 333 326 322 315 266 176 176 163 156
135 126 124 119 113 106 88 77 75 64 48 41 37 40 35 35 31 34 31 20 11 9 9 9 9 7 6 7 12 7 2 10 2 353 358 1 351 4 32 122 122 141 146
142 137 131 122 113 103 96 86 76 66 54 45 41 42 33 32 36 34 26 19 14 10 12 11 10 10 9 8 15 15 14 17 12 11 19 24 27 35 45 72 83 83 105
142 137 132 125 115 107 100 89 78 69 58 53 48 44 38 36 36 28 18 17 20 15 13 14 16 15 12 10 18 21 21 21 18 16 23 26 38 46 50 69 77 82 87
139 133 129 126 119 106 93 84 74 67 57 58 54 45 40 43 35 22 17 21 22 19 17 21 20 15 12 12 15 23 27 27 24 22 26 26 43 49 57 71 80 86 89
142 140 134 127 117 108 98 88 74 70 73 67 60 49 41 41 34 29 27 26 26 25 17 16 15 14 17 15 17 26 30 31 30 27 28 31 42 55 72 80 85 94 95
145 146 143 136 127 115 98 89 81 71 74 72 60 45 40 40 39 36 30 27 29 27 18 19 17 16 21 18 22 26 32 32 32 30 30 36 50 56 64 84 91 100 101
150 149 148 144 140 134 121 100 87 75 78 77 61 46 44 44 42 37 32 31 27 20 24 24 21 24 21 19 31 37 38 36 35 31 28 37 47 54 62 70 76 88 105
151 151 153 151 146 142 133 123 109 89 84 78 65 54 52 47 38 39 38 32 24 23 27 23 22 22 15 25 37 44 49 44 38 34 33 40 40 46 61 65 66 66 72
149 149 146 143 137 128 122 115 104 95 93 85 70 64 64 57 45 47 40 30 26 25 24 23 20 25 20 28 42 43 48 47 39 36 36 44 40 41 58 72 68 62 59
146 145 144 140 133 128 124 114 103 97 93 87 75 70 75 68 56 48 36 29 34 31 27 22 25 29 15 22 41 47 43 45 37 34 36 41 47 44 59 71 71 65 55
128 130 128 123 126 128 125 118 113 102 95 92 79 78 84 81 68 50 38 34 41 36 32 33 26 28 19 20 39 47 49 45 33 29 32 39 45 48 59 72 76 70 54
122 125 126 127 133 133 125 121 116 116 116 92 82 76 74 81 81 59 47 50 50 44 36 32 24 25 19 20 34 44 54 48 38 32 25 23 31 45 56 69 77 82 79
118 122 124 122 122 129 128 123 127 135 100 92 79 68 57 57 73 70 53 52 58 53 35 28 21 18 13 20 25 36 46 54 55 30 13 13 27 40 47 59 69 71 75
128 125 127 123 117 125 134 138 157 132 107 93 79 66 59 53 55 67 61 51 54 54 36 32 21 3 3 10 20 24 30 40 46 15 18 29 38 42 46 49 53 57 63
131 130 130 130 131 136 140 149 144 125 112 103 89 75 70 56 48 49 54 60 47 41 29 22 7 351 355 1 0 2 9 17 22 12 17 33 44 48 39 31 35 41 52
135 136 140 144 147 145 142 143 137 129 117 113 102 83 72 67 47 35 26 50 254 211 201 245 258 307 330 321 331 351 358 354 352 3 23 25 22 23 21 18 14 16 31
139 139 142 146 150 148 147 146 141 137 130 121 115 102 86 61 50 24 1 358 309 307 234 223 222 248 262 304 337 357 359 358 25 54 33 16 11 6 359 356 352 354 0